Time,TemperatureF,DewpointF,PressureIn,WindDirection,WindDirectionDegrees,WindSpeedMPH,WindSpeedGustMPH,Humidity,HourlyPrecipIn,Conditions,Clouds,dailyrainin,SoftwareType,DateUTC
2013-08-21 00:00:00,75.3,66.8,29.97,SE,136,3.0,6.0,75,0.00,,---,0.00,VWS V14.01,2013-08-21 05:00:00,
2013-08-21 00:03:00,75.2,67.1,29.97,SSW,200,1.0,4.0,76,0.00,,---,0.00,VWS V14.01,2013-08-21 05:03:00,
2013-08-21 00:08:00,75.1,67.0,29.97,East,101,0.0,4.0,76,0.00,,---,0.00,VWS V14.01,2013-08-21 05:08:00,
2013-08-21 00:13:00,74.9,66.8,29.97,SE,125,1.0,4.0,76,0.00,,---,0.00,VWS V14.01,2013-08-21 05:13:00,
2013-08-21 00:18:00,74.9,66.8,29.97,SE,129,4.0,6.0,76,0.00,,---,0.00,VWS V14.01,2013-08-21 05:18:00,
2013-08-21 00:23:00,74.9,66.8,29.96,SW,222,1.0,6.0,76,0.00,,---,0.00,VWS V14.01,2013-08-21 05:23:00,
2013-08-21 00:28:00,74.8,66.7,29.96,SE,143,0.0,6.0,76,0.00,,---,0.00,VWS V14.01,2013-08-21 05:28:00,
2013-08-21 00:30:00,74.8,66.7,29.97,SSE,155,2.0,6.0,76,0.00,,---,0.00,VWS V14.01,2013-08-21 05:30:00,
2013-08-21 00:33:00,74.7,67.0,29.97,SW,215,1.0,4.0,77,0.00,,---,0.00,VWS V14.01,2013-08-21 05:33:00,
2013-08-21 00:38:00,74.7,67.0,29.97,SSE,152,1.0,4.0,77,0.00,,---,0.00,VWS V14.01,2013-08-21 05:38:00,
2013-08-21 00:43:00,74.6,66.9,29.97,SE,135,1.0,5.0,77,0.00,,---,0.00,VWS V14.01,2013-08-21 05:43:00,
2013-08-21 00:48:00,74.5,66.8,29.96,East,90,2.0,5.0,77,0.00,,---,0.00,VWS V14.01,2013-08-21 05:48:00,
2013-08-21 00:53:00,74.4,66.7,29.97,SSW,208,1.0,5.0,77,0.00,,---,0.00,VWS V14.01,2013-08-21 05:53:00,
2013-08-21 00:58:00,74.4,66.7,29.97,SSE,167,0.0,5.0,77,0.00,,---,0.00,VWS V14.01,2013-08-21 05:58:00,
2013-08-21 01:00:00,74.4,66.7,29.97,SW,233,0.0,5.0,77,0.00,,---,0.00,VWS V14.01,2013-08-21 06:00:00,
2013-08-21 01:03:00,74.4,66.7,29.97,South,190,0.0,6.0,77,0.00,,---,0.00,VWS V14.01,2013-08-21 06:03:00,
2013-08-21 01:08:00,74.4,66.7,29.97,SSW,207,0.0,6.0,77,0.00,,---,0.00,VWS V14.01,2013-08-21 06:08:00,
2013-08-21 01:14:00,74.4,66.7,29.97,WSW,237,1.0,6.0,77,0.00,,---,0.00,VWS V14.01,2013-08-21 06:14:00,
2013-08-21 01:30:00,74.3,67.0,29.97,East,79,2.0,6.0,78,0.00,,---,0.00,VWS V14.01,2013-08-21 06:30:00,
2013-08-21 01:53:00,73.7,66.8,29.97,SW,229,0.0,4.0,79,0.00,,---,0.00,VWS V14.01,2013-08-21 06:53:00,
2013-08-21 01:58:00,73.5,66.6,29.97,SW,231,0.0,4.0,79,0.00,,---,0.00,VWS V14.01,2013-08-21 06:58:00,
2013-08-21 02:00:00,73.5,66.6,29.97,SW,231,0.0,4.0,79,0.00,,---,0.00,VWS V14.01,2013-08-21 07:00:00,
2013-08-21 02:03:00,73.4,66.9,29.97,SSE,165,1.0,4.0,80,0.00,,---,0.00,VWS V14.01,2013-08-21 07:03:00,
2013-08-21 02:08:00,73.4,66.9,29.97,SSW,212,0.0,4.0,80,0.00,,---,0.00,VWS V14.01,2013-08-21 07:08:00,
2013-08-21 02:13:00,73.5,67.0,29.97,SW,229,1.0,5.0,80,0.00,,---,0.00,VWS V14.01,2013-08-21 07:13:00,
2013-08-21 02:18:00,73.4,66.9,29.97,SE,143,0.0,5.0,80,0.00,,---,0.00,VWS V14.01,2013-08-21 07:18:00,
2013-08-21 02:23:00,73.3,66.8,29.97,South,186,0.0,5.0,80,0.00,,---,0.00,VWS V14.01,2013-08-21 07:23:00,
2013-08-21 02:28:00,73.2,66.7,29.97,South,169,2.0,5.0,80,0.00,,---,0.00,VWS V14.01,2013-08-21 07:28:00,
2013-08-21 02:30:00,73.2,66.7,29.97,SW,230,1.0,5.0,80,0.00,,---,0.00,VWS V14.01,2013-08-21 07:30:00,
2013-08-21 02:33:00,73.2,66.7,29.97,SSE,159,1.0,2.0,80,0.00,,---,0.00,VWS V14.01,2013-08-21 07:33:00,
2013-08-21 02:38:00,73.2,66.7,29.97,SE,131,0.0,4.0,80,0.00,,---,0.00,VWS V14.01,2013-08-21 07:38:00,
2013-08-21 02:43:00,73.1,66.9,29.97,SSW,203,1.0,4.0,81,0.00,,---,0.00,VWS V14.01,2013-08-21 07:43:00,
2013-08-21 02:48:00,73.0,66.8,29.97,East,79,0.0,4.0,81,0.00,,---,0.00,VWS V14.01,2013-08-21 07:48:00,
2013-08-21 02:53:00,72.9,66.7,29.97,SSW,205,1.0,4.0,81,0.00,,---,0.00,VWS V14.01,2013-08-21 07:53:00,
2013-08-21 02:58:00,72.9,66.7,29.97,East,95,3.0,7.0,81,0.00,,---,0.00,VWS V14.01,2013-08-21 07:58:00,
2013-08-21 03:00:00,72.9,66.7,29.97,ESE,114,1.0,7.0,81,0.00,,---,0.00,VWS V14.01,2013-08-21 08:00:00,
2013-08-21 03:03:00,72.9,66.7,29.97,SW,219,0.0,3.0,81,0.00,,---,0.00,VWS V14.01,2013-08-21 08:03:00,
2013-08-21 03:08:00,72.8,67.0,29.97,SSE,160,0.0,3.0,82,0.00,,---,0.00,VWS V14.01,2013-08-21 08:08:00,
2013-08-21 03:14:00,72.6,66.8,29.97,SW,219,0.0,3.0,82,0.00,,---,0.00,VWS V14.01,2013-08-21 08:14:00,
2013-08-21 03:19:00,72.5,66.7,29.96,SSE,155,2.0,3.0,82,0.00,,---,0.00,VWS V14.01,2013-08-21 08:19:00,
2013-08-21 03:24:00,72.5,66.7,29.96,SW,225,0.0,3.0,82,0.00,,---,0.00,VWS V14.01,2013-08-21 08:24:00,
2013-08-21 03:29:00,72.3,66.8,29.96,SW,224,0.0,0.0,83,0.00,,---,0.00,VWS V14.01,2013-08-21 08:29:00,
2013-08-21 03:30:00,72.4,66.9,29.96,SW,224,0.0,3.0,83,0.00,,---,0.00,VWS V14.01,2013-08-21 08:30:00,
2013-08-21 03:34:00,72.2,66.8,29.96,SSW,212,2.0,4.0,83,0.00,,---,0.00,VWS V14.01,2013-08-21 08:34:00,
2013-08-21 03:39:00,72.2,66.8,29.97,SSW,198,0.0,4.0,83,0.00,,---,0.00,VWS V14.01,2013-08-21 08:39:00,
2013-08-21 03:44:00,72.1,66.7,29.97,South,173,2.0,4.0,83,0.00,,---,0.00,VWS V14.01,2013-08-21 08:44:00,
2013-08-21 03:49:00,72.1,66.7,29.97,SW,232,1.0,6.0,83,0.00,,---,0.00,VWS V14.01,2013-08-21 08:49:00,
2013-08-21 03:54:00,72.0,66.9,29.97,WSW,253,1.0,6.0,84,0.00,,---,0.00,VWS V14.01,2013-08-21 08:54:00,
2013-08-21 04:00:00,72.0,66.9,29.97,SW,225,0.0,0.0,84,0.00,,---,0.00,VWS V14.01,2013-08-21 09:00:00,
2013-08-21 04:05:00,72.0,66.9,29.97,SW,215,0.0,2.0,84,0.00,,---,0.00,VWS V14.01,2013-08-21 09:05:00,
2013-08-21 04:10:00,71.9,66.8,29.97,East,88,0.0,3.0,84,0.00,,---,0.00,VWS V14.01,2013-08-21 09:10:00,
2013-08-21 04:15:00,71.9,66.8,29.97,SW,226,1.0,3.0,84,0.00,,---,0.00,VWS V14.01,2013-08-21 09:15:00,
2013-08-21 04:20:00,72.0,66.9,29.97,SSW,193,0.0,3.0,84,0.00,,---,0.00,VWS V14.01,2013-08-21 09:20:00,
2013-08-21 04:25:00,71.9,66.8,29.97,SW,218,0.0,4.0,84,0.00,,---,0.00,VWS V14.01,2013-08-21 09:25:00,
2013-08-21 04:30:00,71.9,66.8,29.97,South,176,0.0,1.0,84,0.00,,---,0.00,VWS V14.01,2013-08-21 09:30:00,
2013-08-21 04:35:00,71.8,66.7,29.97,SW,230,2.0,3.0,84,0.00,,---,0.00,VWS V14.01,2013-08-21 09:35:00,
2013-08-21 04:40:00,71.8,66.7,29.97,South,177,3.0,4.0,84,0.00,,---,0.00,VWS V14.01,2013-08-21 09:40:00,
2013-08-21 04:46:00,71.7,66.6,29.97,SSE,148,2.0,4.0,84,0.00,,---,0.00,VWS V14.01,2013-08-21 09:46:00,
2013-08-21 04:51:00,71.6,66.9,29.97,SW,214,0.0,4.0,85,0.00,,---,0.00,VWS V14.01,2013-08-21 09:51:00,
2013-08-21 04:56:00,71.5,66.8,29.97,South,176,0.0,4.0,85,0.00,,---,0.00,VWS V14.01,2013-08-21 09:56:00,
2013-08-21 05:00:00,71.5,66.8,29.97,South,174,1.0,4.0,85,0.00,,---,0.00,VWS V14.01,2013-08-21 10:00:00,
2013-08-21 05:01:00,71.4,66.7,29.97,SSW,195,0.0,2.0,85,0.00,,---,0.00,VWS V14.01,2013-08-21 10:01:00,
2013-08-21 05:06:00,71.2,66.5,29.97,SE,143,0.0,4.0,85,0.00,,---,0.00,VWS V14.01,2013-08-21 10:06:00,
2013-08-21 05:11:00,71.2,66.5,29.97,South,185,0.0,4.0,85,0.00,,---,0.00,VWS V14.01,2013-08-21 10:11:00,
2013-08-21 05:16:00,71.1,66.7,29.97,SW,233,0.0,4.0,86,0.00,,---,0.00,VWS V14.01,2013-08-21 10:16:00,
2013-08-21 05:21:00,70.9,66.5,29.97,SSW,196,0.0,4.0,86,0.00,,---,0.00,VWS V14.01,2013-08-21 10:21:00,
2013-08-21 05:26:00,70.9,66.5,29.97,SSE,162,0.0,4.0,86,0.00,,---,0.00,VWS V14.01,2013-08-21 10:26:00,
2013-08-21 05:30:00,70.8,66.4,29.97,South,178,0.0,4.0,86,0.00,,---,0.00,VWS V14.01,2013-08-21 10:30:00,
2013-08-21 05:32:00,70.7,66.3,29.97,West,267,0.0,1.0,86,0.00,,---,0.00,VWS V14.01,2013-08-21 10:32:00,
2013-08-21 05:37:00,70.6,66.6,29.98,SSW,198,0.0,2.0,87,0.00,,---,0.00,VWS V14.01,2013-08-21 10:37:00,
2013-08-21 05:42:00,70.5,66.4,29.98,SW,231,0.0,2.0,87,0.00,,---,0.00,VWS V14.01,2013-08-21 10:42:00,
2013-08-21 05:47:00,70.5,66.4,29.98,SSW,202,0.0,2.0,87,0.00,,---,0.00,VWS V14.01,2013-08-21 10:47:00,
2013-08-21 05:52:00,70.5,66.4,29.98,SSE,155,1.0,3.0,87,0.00,,---,0.00,VWS V14.01,2013-08-21 10:52:00,
2013-08-21 05:57:00,70.5,66.4,29.98,SSE,160,3.0,3.0,87,0.00,,---,0.00,VWS V14.01,2013-08-21 10:57:00,
2013-08-21 06:00:00,70.5,66.4,29.98,SE,140,1.0,3.0,87,0.00,,---,0.00,VWS V14.01,2013-08-21 11:00:00,
2013-08-21 06:02:00,70.5,66.4,29.98,SSE,155,1.0,2.0,87,0.00,,---,0.00,VWS V14.01,2013-08-21 11:02:00,
2013-08-21 06:07:00,70.5,66.4,29.98,SSE,166,0.0,3.0,87,0.00,,---,0.00,VWS V14.01,2013-08-21 11:07:00,
2013-08-21 06:13:00,70.5,66.4,29.98,ESE,120,1.0,3.0,87,0.00,,---,0.00,VWS V14.01,2013-08-21 11:13:00,
2013-08-21 06:18:00,70.5,66.4,29.98,SW,224,0.0,3.0,87,0.00,,---,0.00,VWS V14.01,2013-08-21 11:18:00,
2013-08-21 06:23:00,70.5,66.4,29.98,SSW,203,1.0,3.0,87,0.00,,---,0.00,VWS V14.01,2013-08-21 11:23:00,
2013-08-21 06:28:00,70.4,66.3,29.98,SSE,152,0.0,3.0,87,0.00,,---,0.00,VWS V14.01,2013-08-21 11:28:00,
2013-08-21 06:30:00,70.4,66.3,29.98,SSE,152,0.0,3.0,87,0.00,,---,0.00,VWS V14.01,2013-08-21 11:30:00,
2013-08-21 06:33:00,70.3,66.2,29.99,SSW,212,0.0,0.0,87,0.00,,---,0.00,VWS V14.01,2013-08-21 11:33:00,
2013-08-21 06:38:00,70.1,66.4,29.99,SSW,203,0.0,3.0,88,0.00,,---,0.00,VWS V14.01,2013-08-21 11:38:00,
2013-08-21 06:43:00,70.1,66.4,29.99,SSE,165,1.0,3.0,88,0.00,,---,0.00,VWS V14.01,2013-08-21 11:43:00,
2013-08-21 06:48:00,70.1,66.4,29.99,SSW,205,0.0,3.0,88,0.00,,---,0.00,VWS V14.01,2013-08-21 11:48:00,
2013-08-21 06:53:00,70.1,66.4,29.99,WSW,257,0.0,3.0,88,0.00,,---,0.00,VWS V14.01,2013-08-21 11:53:00,
2013-08-21 06:59:00,70.2,66.5,29.99,SSE,151,0.0,3.0,88,0.00,,---,0.00,VWS V14.01,2013-08-21 11:59:00,
2013-08-21 07:00:00,70.2,66.5,29.99,SSE,151,0.0,3.0,88,0.00,,---,0.00,VWS V14.01,2013-08-21 12:00:00,
2013-08-21 07:04:00,70.3,66.6,29.99,WSW,242,0.0,1.0,88,0.00,,---,0.00,VWS V14.01,2013-08-21 12:04:00,
2013-08-21 07:09:00,70.4,66.7,29.99,SSE,161,0.0,1.0,88,0.00,,---,0.00,VWS V14.01,2013-08-21 12:09:00,
2013-08-21 07:14:00,70.6,66.9,29.99,SE,126,0.0,2.0,88,0.00,,---,0.00,VWS V14.01,2013-08-21 12:14:00,
2013-08-21 07:19:00,70.9,66.8,29.99,SW,222,1.0,4.0,87,0.00,,---,0.00,VWS V14.01,2013-08-21 12:19:00,
2013-08-21 07:24:00,71.1,67.0,29.99,SW,226,0.0,4.0,87,0.00,,---,0.00,VWS V14.01,2013-08-21 12:24:00,
2013-08-21 07:29:00,71.4,67.0,29.99,SE,142,1.0,1.0,86,0.00,,---,0.00,VWS V14.01,2013-08-21 12:29:00,
2013-08-21 07:30:00,71.4,67.3,29.99,SW,215,0.0,4.0,87,0.00,,---,0.00,VWS V14.01,2013-08-21 12:30:00,
2013-08-21 07:34:00,71.7,67.3,29.99,SSW,207,0.0,1.0,86,0.00,,---,0.00,VWS V14.01,2013-08-21 12:34:00,
2013-08-21 07:40:00,72.0,67.2,29.99,SSE,163,1.0,5.0,85,0.00,,---,0.00,VWS V14.01,2013-08-21 12:40:00,
2013-08-21 07:45:00,72.2,67.4,30.00,SW,228,2.0,5.0,85,0.00,,---,0.00,VWS V14.01,2013-08-21 12:45:00,
2013-08-21 07:50:00,72.4,67.3,30.00,SSE,165,1.0,5.0,84,0.00,,---,0.00,VWS V14.01,2013-08-21 12:50:00,
2013-08-21 07:55:00,72.4,67.3,30.00,SSE,166,3.0,6.0,84,0.00,,---,0.00,VWS V14.01,2013-08-21 12:55:00,
2013-08-21 08:00:00,72.5,67.4,29.99,SW,214,0.0,1.0,84,0.00,,---,0.00,VWS V14.01,2013-08-21 13:00:00,
2013-08-21 08:05:00,72.6,67.5,30.00,SSW,200,2.0,4.0,84,0.00,,---,0.00,VWS V14.01,2013-08-21 13:05:00,
2013-08-21 08:10:00,73.0,67.9,30.00,SSW,197,3.0,4.0,84,0.00,,---,0.00,VWS V14.01,2013-08-21 13:10:00,
2013-08-21 08:15:00,73.5,68.0,30.00,SSE,159,2.0,4.0,83,0.00,,---,0.00,VWS V14.01,2013-08-21 13:15:00,
2013-08-21 08:20:00,74.1,67.9,30.00,SSW,212,0.0,5.0,81,0.00,,---,0.00,VWS V14.01,2013-08-21 13:20:00,
2013-08-21 08:26:00,74.7,68.5,30.00,SW,226,2.0,5.0,81,0.00,,---,0.00,VWS V14.01,2013-08-21 13:26:00,
2013-08-21 08:30:00,75.0,68.4,30.00,ESE,113,1.0,5.0,80,0.00,,---,0.00,VWS V14.01,2013-08-21 13:30:00,
2013-08-21 08:31:00,75.1,68.2,30.00,SSW,195,2.0,5.0,79,0.00,,---,0.00,VWS V14.01,2013-08-21 13:31:00,
2013-08-21 08:36:00,75.6,68.6,30.00,SSE,155,2.0,6.0,79,0.00,,---,0.00,VWS V14.01,2013-08-21 13:36:00,
2013-08-21 08:41:00,76.1,68.8,30.00,SW,215,1.0,6.0,78,0.00,,---,0.00,VWS V14.01,2013-08-21 13:41:00,
2013-08-21 08:46:00,76.3,68.2,30.00,SSW,193,2.0,7.0,76,0.00,,---,0.00,VWS V14.01,2013-08-21 13:46:00,
2013-08-21 08:51:00,76.6,68.9,29.99,South,191,1.0,7.0,77,0.00,,---,0.00,VWS V14.01,2013-08-21 13:51:00,
2013-08-21 08:56:00,77.1,69.0,29.99,SW,224,0.0,8.0,76,0.00,,---,0.00,VWS V14.01,2013-08-21 13:56:00,
2013-08-21 09:00:00,77.2,69.1,29.99,SW,221,2.0,8.0,76,0.00,,---,0.00,VWS V14.01,2013-08-21 14:00:00,
2013-08-21 09:01:00,77.5,69.0,29.99,SW,233,1.0,7.0,75,0.00,,---,0.00,VWS V14.01,2013-08-21 14:01:00,
2013-08-21 09:07:00,77.9,68.9,29.99,SE,125,2.0,7.0,74,0.00,,---,0.00,VWS V14.01,2013-08-21 14:07:00,
2013-08-21 09:12:00,78.2,68.8,29.99,SSW,200,1.0,7.0,73,0.00,,---,0.00,VWS V14.01,2013-08-21 14:12:00,
2013-08-21 09:17:00,78.5,69.1,29.99,ENE,76,2.0,7.0,73,0.00,,---,0.00,VWS V14.01,2013-08-21 14:17:00,
2013-08-21 09:22:00,78.8,69.0,29.99,SSW,199,0.0,8.0,72,0.00,,---,0.00,VWS V14.01,2013-08-21 14:22:00,
2013-08-21 09:27:00,79.1,69.3,29.99,SSW,212,4.0,8.0,72,0.00,,---,0.00,VWS V14.01,2013-08-21 14:27:00,
2013-08-21 09:30:00,79.2,69.0,29.99,SW,215,2.0,8.0,71,0.00,,---,0.00,VWS V14.01,2013-08-21 14:30:00,
2013-08-21 09:32:00,79.6,69.4,29.99,WSW,242,1.0,6.0,71,0.00,,---,0.00,VWS V14.01,2013-08-21 14:32:00,
2013-08-21 09:37:00,79.9,69.2,29.99,SE,127,1.0,7.0,70,0.00,,---,0.00,VWS V14.01,2013-08-21 14:37:00,
2013-08-21 09:42:00,80.2,69.1,29.99,WSW,250,3.0,9.0,69,0.00,,---,0.00,VWS V14.01,2013-08-21 14:42:00,
2013-08-21 09:47:00,80.7,70.0,29.99,SSE,150,2.0,9.0,70,0.00,,---,0.00,VWS V14.01,2013-08-21 14:47:00,
2013-08-21 09:53:00,80.9,69.8,29.99,SSW,208,3.0,9.0,69,0.00,,---,0.00,VWS V14.01,2013-08-21 14:53:00,
2013-08-21 09:58:00,81.3,69.7,29.99,ENE,58,4.0,9.0,68,0.00,,---,0.00,VWS V14.01,2013-08-21 14:58:00,
2013-08-21 10:00:00,81.3,69.7,29.99,SW,232,3.0,13.0,68,0.00,,---,0.00,VWS V14.01,2013-08-21 15:00:00,
2013-08-21 10:03:00,81.5,69.5,29.99,South,173,2.0,7.0,67,0.00,,---,0.00,VWS V14.01,2013-08-21 15:03:00,
2013-08-21 10:08:00,81.7,69.7,29.99,SSW,194,2.0,7.0,67,0.00,,---,0.00,VWS V14.01,2013-08-21 15:08:00,
2013-08-21 10:13:00,82.1,70.1,29.99,SW,226,2.0,7.0,67,0.00,,---,0.00,VWS V14.01,2013-08-21 15:13:00,
2013-08-21 10:18:00,82.3,69.8,29.99,WSW,237,2.0,11.0,66,0.00,,---,0.00,VWS V14.01,2013-08-21 15:18:00,
2013-08-21 10:23:00,82.4,69.9,29.99,SW,221,2.0,11.0,66,0.00,,---,0.00,VWS V14.01,2013-08-21 15:23:00,
2013-08-21 10:30:00,82.8,70.3,29.99,SW,225,3.0,13.0,66,0.00,,---,0.00,VWS V14.01,2013-08-21 15:30:00,
2013-08-21 11:00:00,84.5,71.0,29.99,SSW,202,3.0,10.0,64,0.00,,---,0.00,VWS V14.01,2013-08-21 16:00:00,
2013-08-21 11:30:00,86.2,71.2,29.99,SSW,202,3.0,12.0,61,0.00,,---,0.00,VWS V14.01,2013-08-21 16:30:00,
2013-08-21 12:00:00,87.5,69.9,29.99,SW,225,3.0,11.0,56,0.00,,---,0.00,VWS V14.01,2013-08-21 17:00:00,
2013-08-21 12:30:00,88.1,70.4,29.99,SSW,202,4.0,13.0,56,0.00,,---,0.00,VWS V14.01,2013-08-21 17:30:00,
2013-08-21 12:39:00,82.7,70.2,29.99,SW,225,3.0,11.0,66,0.00,,---,0.00,VWS V14.01,2013-08-21 17:39:00,
2013-08-21 12:45:00,88.7,71.0,29.98,SE,125,7.0,11.0,56,0.00,,---,0.00,VWS V14.01,2013-08-21 17:45:00,
2013-08-21 12:50:00,88.6,70.4,29.98,SW,232,5.0,11.0,55,0.00,,---,0.00,VWS V14.01,2013-08-21 17:50:00,
2013-08-21 12:55:00,88.6,70.9,29.97,East,84,1.0,11.0,56,0.00,,---,0.00,VWS V14.01,2013-08-21 17:55:00,
2013-08-21 13:00:00,89.1,70.8,29.97,SSW,204,4.0,11.0,55,0.00,,---,0.00,VWS V14.01,2013-08-21 18:00:00,
2013-08-21 13:30:00,89.7,70.9,29.97,SSW,202,4.0,13.0,54,0.00,,---,0.00,VWS V14.01,2013-08-21 18:30:00,
2013-08-21 14:00:00,90.9,70.8,29.97,SW,225,4.0,14.0,52,0.00,,---,0.00,VWS V14.01,2013-08-21 19:00:00,
2013-08-21 14:30:00,91.4,70.7,29.96,SW,225,4.0,14.0,51,0.00,,---,0.00,VWS V14.01,2013-08-21 19:30:00,
2013-08-21 15:00:00,91.7,69.8,29.97,SSW,202,5.0,14.0,49,0.00,,---,0.00,VWS V14.01,2013-08-21 20:00:00,
2013-08-21 15:45:00,91.5,69.1,29.96,SSW,195,3.0,5.0,48,0.00,,---,0.00,VWS V14.01,2013-08-21 20:45:00,
2013-08-21 15:50:00,91.1,68.7,29.96,West,271,5.0,13.0,48,0.00,,---,0.00,VWS V14.01,2013-08-21 20:50:00,
2013-08-21 15:55:00,91.0,69.2,29.95,SW,221,4.0,13.0,49,0.00,,---,0.00,VWS V14.01,2013-08-21 20:55:00,
2013-08-21 16:00:00,91.2,69.4,29.95,SW,221,3.0,7.0,49,0.00,,---,0.00,VWS V14.01,2013-08-21 21:00:00,
2013-08-21 16:06:00,91.5,69.7,29.95,SW,222,6.0,10.0,49,0.00,,---,0.00,VWS V14.01,2013-08-21 21:06:00,
2013-08-21 16:11:00,91.3,69.5,29.95,West,269,1.0,10.0,49,0.00,,---,0.00,VWS V14.01,2013-08-21 21:11:00,
2013-08-21 16:16:00,91.1,69.9,29.95,SE,136,2.0,10.0,50,0.00,,---,0.00,VWS V14.01,2013-08-21 21:16:00,
2013-08-21 16:21:00,90.9,70.3,29.95,WSW,246,5.0,10.0,51,0.00,,---,0.00,VWS V14.01,2013-08-21 21:21:00,
2013-08-21 16:26:00,90.6,70.0,29.95,SW,226,3.0,10.0,51,0.00,,---,0.00,VWS V14.01,2013-08-21 21:26:00,
2013-08-21 16:30:00,90.5,69.3,29.95,ESE,105,1.0,10.0,50,0.00,,---,0.00,VWS V14.01,2013-08-21 21:30:00,
2013-08-21 16:31:00,90.6,70.0,29.95,WSW,238,1.0,5.0,51,0.00,,---,0.00,VWS V14.01,2013-08-21 21:31:00,
2013-08-21 16:36:00,90.3,69.2,29.95,South,176,4.0,8.0,50,0.00,,---,0.00,VWS V14.01,2013-08-21 21:36:00,
2013-08-21 16:41:00,90.2,69.1,29.95,South,179,3.0,8.0,50,0.00,,---,0.00,VWS V14.01,2013-08-21 21:41:00,
2013-08-21 16:47:00,90.4,69.2,29.94,South,169,8.0,8.0,50,0.00,,---,0.00,VWS V14.01,2013-08-21 21:47:00,
2013-08-21 16:52:00,90.6,68.8,29.95,SSE,149,2.0,9.0,49,0.00,,---,0.00,VWS V14.01,2013-08-21 21:52:00,
2013-08-21 16:57:00,90.9,69.1,29.95,SSW,210,4.0,9.0,49,0.00,,---,0.00,VWS V14.01,2013-08-21 21:57:00,
2013-08-21 17:00:00,91.0,69.2,29.95,ESE,106,3.0,9.0,49,0.00,,---,0.00,VWS V14.01,2013-08-21 22:00:00,
2013-08-21 17:02:00,91.1,69.3,29.95,SSE,148,1.0,8.0,49,0.00,,---,0.00,VWS V14.01,2013-08-21 22:02:00,
2013-08-21 17:07:00,91.4,69.0,29.95,NW,310,1.0,8.0,48,0.00,,---,0.00,VWS V14.01,2013-08-21 22:07:00,
2013-08-21 17:12:00,91.6,69.2,29.95,SE,145,4.0,8.0,48,0.00,,---,0.00,VWS V14.01,2013-08-21 22:12:00,
2013-08-21 17:17:00,91.7,69.2,29.95,WSW,255,0.0,8.0,48,0.00,,---,0.00,VWS V14.01,2013-08-21 22:17:00,
2013-08-21 17:22:00,91.6,69.8,29.95,SSW,211,2.0,8.0,49,0.00,,---,0.00,VWS V14.01,2013-08-21 22:22:00,
2013-08-21 17:27:00,92.0,70.1,29.95,WSW,250,6.0,9.0,49,0.00,,---,0.00,VWS V14.01,2013-08-21 22:27:00,
2013-08-21 17:30:00,92.1,70.8,29.94,SE,143,8.0,9.0,50,0.00,,---,0.00,VWS V14.01,2013-08-21 22:30:00,
2013-08-21 17:32:00,92.1,70.2,29.95,ESE,120,2.0,10.0,49,0.00,,---,0.00,VWS V14.01,2013-08-21 22:32:00,
2013-08-21 17:37:00,92.0,70.7,29.94,SSW,195,1.0,10.0,50,0.00,,---,0.00,VWS V14.01,2013-08-21 22:37:00,
2013-08-21 17:42:00,91.6,70.3,29.94,SW,231,1.0,10.0,50,0.00,,---,0.00,VWS V14.01,2013-08-21 22:42:00,
2013-08-21 17:47:00,91.3,70.1,29.94,South,186,4.0,10.0,50,0.00,,---,0.00,VWS V14.01,2013-08-21 22:47:00,
2013-08-21 17:52:00,90.9,69.7,29.94,SSW,195,2.0,10.0,50,0.00,,---,0.00,VWS V14.01,2013-08-21 22:52:00,
2013-08-21 17:58:00,90.7,70.1,29.94,SW,221,1.0,10.0,51,0.00,,---,0.00,VWS V14.01,2013-08-21 22:58:00,
2013-08-21 18:00:00,90.7,70.1,29.94,SSW,212,2.0,10.0,51,0.00,,---,0.00,VWS V14.01,2013-08-21 23:00:00,
2013-08-21 18:03:00,90.8,70.2,29.94,SW,232,2.0,7.0,51,0.00,,---,0.00,VWS V14.01,2013-08-21 23:03:00,
2013-08-21 18:08:00,90.8,70.2,29.94,SW,215,4.0,9.0,51,0.00,,---,0.00,VWS V14.01,2013-08-21 23:08:00,
2013-08-21 18:13:00,90.8,70.2,29.93,SSE,161,1.0,9.0,51,0.00,,---,0.00,VWS V14.01,2013-08-21 23:13:00,
2013-08-21 18:18:00,90.8,70.8,29.93,SSW,207,2.0,9.0,52,0.00,,---,0.00,VWS V14.01,2013-08-21 23:18:00,
2013-08-21 18:23:00,90.6,70.6,29.93,SW,233,4.0,9.0,52,0.00,,---,0.00,VWS V14.01,2013-08-21 23:23:00,
2013-08-21 18:28:00,90.2,70.8,29.93,SSE,158,0.0,9.0,53,0.00,,---,0.00,VWS V14.01,2013-08-21 23:28:00,
2013-08-21 18:30:00,90.2,71.3,29.93,SSW,212,3.0,9.0,54,0.00,,---,0.00,VWS V14.01,2013-08-21 23:30:00,
2013-08-21 18:33:00,89.9,71.0,29.93,SSE,154,1.0,5.0,54,0.00,,---,0.00,VWS V14.01,2013-08-21 23:33:00,
2013-08-21 18:38:00,89.5,70.7,29.93,SSW,193,0.0,5.0,54,0.00,,---,0.00,VWS V14.01,2013-08-21 23:38:00,
2013-08-21 18:43:00,89.0,70.8,29.93,SW,225,0.0,5.0,55,0.00,,---,0.00,VWS V14.01,2013-08-21 23:43:00,
2013-08-21 18:48:00,88.6,70.9,29.94,SE,141,0.0,5.0,56,0.00,,---,0.00,VWS V14.01,2013-08-21 23:48:00,
2013-08-21 18:53:00,88.2,71.1,29.94,SSW,198,1.0,5.0,57,0.00,,---,0.00,VWS V14.01,2013-08-21 23:53:00,
2013-08-21 18:58:00,87.8,71.2,29.94,SSW,212,0.0,5.0,58,0.00,,---,0.00,VWS V14.01,2013-08-21 23:58:00,
2013-08-21 19:00:00,87.7,71.1,29.94,SSW,198,1.0,5.0,58,0.00,,---,0.00,VWS V14.01,2013-08-22 00:00:00,
2013-08-21 19:03:00,87.4,71.3,29.94,SW,232,2.0,3.0,59,0.00,,---,0.00,VWS V14.01,2013-08-22 00:03:00,
2013-08-21 19:08:00,87.1,71.0,29.94,SW,217,0.0,3.0,59,0.00,,---,0.00,VWS V14.01,2013-08-22 00:08:00,
2013-08-21 19:13:00,86.7,71.2,29.94,SW,228,0.0,3.0,60,0.00,,---,0.00,VWS V14.01,2013-08-22 00:13:00,
2013-08-21 19:18:00,86.4,71.4,29.94,SW,221,1.0,3.0,61,0.00,,---,0.00,VWS V14.01,2013-08-22 00:18:00,
2013-08-21 19:23:00,86.1,71.6,29.94,South,188,1.0,3.0,62,0.00,,---,0.00,VWS V14.01,2013-08-22 00:23:00,
2013-08-21 19:28:00,85.8,71.3,29.94,SSE,167,0.0,3.0,62,0.00,,---,0.00,VWS V14.01,2013-08-22 00:28:00,
2013-08-21 19:30:00,85.7,71.2,29.94,SSW,207,1.0,3.0,62,0.00,,---,0.00,VWS V14.01,2013-08-22 00:30:00,
2013-08-21 19:33:00,85.5,71.0,29.93,ESE,107,0.0,3.0,62,0.00,,---,0.00,VWS V14.01,2013-08-22 00:33:00,
2013-08-21 19:38:00,85.3,71.3,29.93,SW,219,0.0,3.0,63,0.00,,---,0.00,VWS V14.01,2013-08-22 00:38:00,
2013-08-21 19:43:00,85.0,71.0,29.93,WNW,285,0.0,3.0,63,0.00,,---,0.00,VWS V14.01,2013-08-22 00:43:00,
2013-08-21 19:48:00,84.8,70.8,29.93,SW,236,0.0,3.0,63,0.00,,---,0.00,VWS V14.01,2013-08-22 00:48:00,
2013-08-21 19:53:00,84.5,70.5,29.93,SSW,195,0.0,3.0,63,0.00,,---,0.00,VWS V14.01,2013-08-22 00:53:00,
2013-08-21 19:58:00,84.2,70.2,29.93,SSW,210,2.0,3.0,63,0.00,,---,0.00,VWS V14.01,2013-08-22 00:58:00,
2013-08-21 20:00:00,84.2,70.2,29.93,SW,217,2.0,3.0,63,0.00,,---,0.00,VWS V14.01,2013-08-22 01:00:00,
2013-08-21 20:03:00,84.0,70.1,29.93,ESE,102,0.0,5.0,63,0.00,,---,0.00,VWS V14.01,2013-08-22 01:03:00,
2013-08-21 20:08:00,83.7,69.8,29.93,SSE,162,0.0,5.0,63,0.00,,---,0.00,VWS V14.01,2013-08-22 01:08:00,
2013-08-21 20:13:00,83.6,69.7,29.93,SW,228,0.0,5.0,63,0.00,,---,0.00,VWS V14.01,2013-08-22 01:13:00,
2013-08-21 20:18:00,83.4,69.5,29.93,SW,219,0.0,5.0,63,0.00,,---,0.00,VWS V14.01,2013-08-22 01:18:00,
2013-08-21 20:23:00,83.3,69.4,29.94,WSW,245,3.0,5.0,63,0.00,,---,0.00,VWS V14.01,2013-08-22 01:23:00,
2013-08-21 20:28:00,83.2,69.3,29.94,SSW,205,0.0,5.0,63,0.00,,---,0.00,VWS V14.01,2013-08-22 01:28:00,
2013-08-21 20:30:00,83.2,69.3,29.94,SSW,195,0.0,5.0,63,0.00,,---,0.00,VWS V14.01,2013-08-22 01:30:00,
2013-08-21 20:33:00,83.0,69.1,29.94,SW,235,2.0,2.0,63,0.00,,---,0.00,VWS V14.01,2013-08-22 01:33:00,
2013-08-21 20:38:00,83.0,69.1,29.94,SW,228,2.0,3.0,63,0.00,,---,0.00,VWS V14.01,2013-08-22 01:38:00,
2013-08-21 20:43:00,83.0,69.1,29.94,South,181,0.0,4.0,63,0.00,,---,0.00,VWS V14.01,2013-08-22 01:43:00,
2013-08-21 20:48:00,82.9,69.0,29.95,South,174,2.0,4.0,63,0.00,,---,0.00,VWS V14.01,2013-08-22 01:48:00,
2013-08-21 20:53:00,82.7,69.3,29.95,SW,219,1.0,6.0,64,0.00,,---,0.00,VWS V14.01,2013-08-22 01:53:00,
2013-08-21 20:58:00,82.4,69.0,29.95,SSW,204,0.0,6.0,64,0.00,,---,0.00,VWS V14.01,2013-08-22 01:58:00,
2013-08-21 21:00:00,82.4,69.0,29.95,SSW,197,0.0,6.0,64,0.00,,---,0.00,VWS V14.01,2013-08-22 02:00:00,
2013-08-21 21:03:00,82.1,69.2,29.95,South,191,1.0,1.0,65,0.00,,---,0.00,VWS V14.01,2013-08-22 02:03:00,
2013-08-21 21:08:00,81.9,69.0,29.95,SW,219,0.0,3.0,65,0.00,,---,0.00,VWS V14.01,2013-08-22 02:08:00,
2013-08-21 21:13:00,81.7,69.2,29.96,SSE,167,1.0,3.0,66,0.00,,---,0.00,VWS V14.01,2013-08-22 02:13:00,
2013-08-21 21:18:00,81.5,69.1,29.96,SSW,198,1.0,3.0,66,0.00,,---,0.00,VWS V14.01,2013-08-22 02:18:00,
2013-08-21 21:23:00,81.3,69.3,29.96,South,170,1.0,4.0,67,0.00,,---,0.00,VWS V14.01,2013-08-22 02:23:00,
2013-08-21 21:28:00,81.2,69.2,29.96,SW,215,0.0,4.0,67,0.00,,---,0.00,VWS V14.01,2013-08-22 02:28:00,
2013-08-21 21:30:00,81.1,69.1,29.96,SE,141,1.0,4.0,67,0.00,,---,0.00,VWS V14.01,2013-08-22 02:30:00,
2013-08-21 21:33:00,81.0,69.4,29.96,SSE,158,0.0,1.0,68,0.00,,---,0.00,VWS V14.01,2013-08-22 02:33:00,
2013-08-21 21:38:00,80.7,69.2,29.96,SSW,205,0.0,2.0,68,0.00,,---,0.00,VWS V14.01,2013-08-22 02:38:00,
2013-08-21 21:43:00,80.5,69.0,29.96,SSW,195,0.0,4.0,68,0.00,,---,0.00,VWS V14.01,2013-08-22 02:43:00,
2013-08-21 21:48:00,80.4,69.3,29.96,South,186,1.0,4.0,69,0.00,,---,0.00,VWS V14.01,2013-08-22 02:48:00,
2013-08-21 21:53:00,80.1,69.0,29.96,SSW,207,0.0,4.0,69,0.00,,---,0.00,VWS V14.01,2013-08-22 02:53:00,
2013-08-21 21:58:00,79.9,69.2,29.96,SW,229,0.0,4.0,70,0.00,,---,0.00,VWS V14.01,2013-08-22 02:58:00,
2013-08-21 22:00:00,79.9,69.2,29.96,SSW,212,0.0,4.0,70,0.00,,---,0.00,VWS V14.01,2013-08-22 03:00:00,
2013-08-21 22:03:00,79.8,69.2,29.97,SW,222,0.0,0.0,70,0.00,,---,0.00,VWS V14.01,2013-08-22 03:03:00,
2013-08-21 22:08:00,79.6,69.0,29.97,WSW,240,0.0,1.0,70,0.00,,---,0.00,VWS V14.01,2013-08-22 03:08:00,
2013-08-21 22:13:00,79.6,69.0,29.97,SSW,208,0.0,2.0,70,0.00,,---,0.00,VWS V14.01,2013-08-22 03:13:00,
2013-08-21 22:18:00,79.6,69.4,29.97,SSW,203,0.0,4.0,71,0.00,,---,0.00,VWS V14.01,2013-08-22 03:18:00,
2013-08-21 22:23:00,79.4,69.2,29.97,South,186,0.0,4.0,71,0.00,,---,0.00,VWS V14.01,2013-08-22 03:23:00,
2013-08-21 22:28:00,79.2,69.0,29.97,SSW,205,0.0,4.0,71,0.00,,---,0.00,VWS V14.01,2013-08-22 03:28:00,
2013-08-21 22:30:00,79.2,69.0,29.97,SSE,162,2.0,4.0,71,0.00,,---,0.00,VWS V14.01,2013-08-22 03:30:00,
2013-08-21 22:33:00,79.1,68.9,29.97,SSW,203,0.0,4.0,71,0.00,,---,0.00,VWS V14.01,2013-08-22 03:33:00,
2013-08-21 22:38:00,79.2,69.0,29.98,SSW,195,0.0,4.0,71,0.00,,---,0.00,VWS V14.01,2013-08-22 03:38:00,
2013-08-21 22:43:00,79.0,69.2,29.97,SSW,204,0.0,4.0,72,0.00,,---,0.00,VWS V14.01,2013-08-22 03:43:00,
2013-08-21 22:48:00,78.8,69.0,29.97,SSW,212,2.0,5.0,72,0.00,,---,0.00,VWS V14.01,2013-08-22 03:48:00,
2013-08-21 22:53:00,78.8,69.0,29.97,SW,224,1.0,5.0,72,0.00,,---,0.00,VWS V14.01,2013-08-22 03:53:00,
2013-08-21 22:58:00,78.8,69.0,29.97,SE,136,0.0,5.0,72,0.00,,---,0.00,VWS V14.01,2013-08-22 03:58:00,
2013-08-21 23:00:00,78.8,69.0,29.97,SE,136,0.0,5.0,72,0.00,,---,0.00,VWS V14.01,2013-08-22 04:00:00,
2013-08-21 23:01:00,78.8,69.0,29.97,SE,146,0.0,1.0,72,0.00,,---,0.00,VWS V14.01,2013-08-22 04:01:00,
2013-08-21 23:02:00,78.8,69.0,29.97,SE,138,0.0,1.0,72,0.00,,---,0.00,VWS V14.01,2013-08-22 04:02:00,
2013-08-21 23:07:00,78.6,68.8,29.97,SE,133,0.0,1.0,72,0.00,,---,0.00,VWS V14.01,2013-08-22 04:07:00,
2013-08-21 23:13:00,78.3,68.9,29.98,SE,133,1.0,1.0,73,0.00,,---,0.00,VWS V14.01,2013-08-22 04:13:00,
2013-08-21 23:18:00,77.9,68.9,29.98,SE,133,0.0,1.0,74,0.00,,---,0.00,VWS V14.01,2013-08-22 04:18:00,
2013-08-21 23:23:00,77.4,68.9,29.98,SE,134,0.0,1.0,75,0.00,,---,0.00,VWS V14.01,2013-08-22 04:23:00,
2013-08-21 23:28:00,77.1,69.0,29.98,SE,133,0.0,1.0,76,0.00,,---,0.00,VWS V14.01,2013-08-22 04:28:00,
2013-08-21 23:30:00,77.1,69.0,29.98,SE,133,0.0,1.0,76,0.00,,---,0.00,VWS V14.01,2013-08-22 04:30:00,
2013-08-21 23:33:00,76.8,68.7,29.98,SSW,203,0.0,0.0,76,0.00,,---,0.00,VWS V14.01,2013-08-22 04:33:00,
2013-08-21 23:38:00,76.6,68.5,29.98,SSW,207,0.0,0.0,76,0.00,,---,0.00,VWS V14.01,2013-08-22 04:38:00,
2013-08-21 23:43:00,76.6,68.5,29.98,ESE,105,0.0,0.0,76,0.00,,---,0.00,VWS V14.01,2013-08-22 04:43:00,
2013-08-21 23:48:00,76.5,68.8,29.97,SW,222,0.0,0.0,77,0.00,,---,0.00,VWS V14.01,2013-08-22 04:48:00,
2013-08-21 23:53:00,76.4,68.7,29.97,South,169,0.0,2.0,77,0.00,,---,0.00,VWS V14.01,2013-08-22 04:53:00,
2013-08-21 23:58:00,76.4,68.7,29.97,SSW,197,0.0,4.0,77,0.00,,---,0.00,VWS V14.01,2013-08-22 04:58:00,